User: anonymous   Login
Location: Unspecified
(0.0000°N, 0.0000°E)
Time: 19:49:31
(UTC+00:00)
Language:

USA 119 - Orbit

View from above orbital plane
View from above orbital plane
View from above satellite
View from above satellite

Ground track
Ground track

The orbit data is extracted from the following two-line orbital elements,

1 23893U 96029A   20135.09621808 0.00000000  00000-0  00000-0 0    09
2 23893  63.3075 174.1205 3391681 265.3687  55.8571  5.52855405    09
Epoch (UTC): 14 May 2020 02:18:33
Eccentricity: 0.3391681
inclination: 63.3075°
perigee height: 2550 km
apogee height: 11714 km
right ascension of ascending node: 174.1205°
argument of perigee: 265.3687°
revolutions per day: 5.52855405
mean anomaly at epoch: 55.8571°
orbit number at epoch: 0

The dashed part of the orbit path shows where the satellite is in the earth's shadow,  

DLR